Regional Weather Roundup
Issued by NWS Green Bay, WI

Home | Current Version | Previous Version | Graphics & Text | Print | Product List | Glossary Off
Versions: 1 2 3 4 5 6 7 8 9 10 11 12 13 14 15 16 17 18 19 20 21 22 23 24 25 26 27 28 29 30 31 32 33 34 35 36 37 38 39 40 41 42 43 44 45 46 47 48 49 50

000
ASUS43 KGRB 242059
RWRGRB

NORTH-CENTRAL AND NORTHEAST WISCONSIN REGIONAL WEATHER ROUNDUP
NATIONAL WEATHER SERVICE GREEN BAY WI
400 PM CDT FRI APR 24 2015

WIZ005-009-010>012-018-019-242200-
NORTH CENTRAL WISCONSIN

CITY           SKY/WX    TMP DP  RH WIND       PRES   REMARKS
IRONWOOD       CLOUDY    43  30  61 S10       29.94S
MANITOWISH WTR NOT AVBL
ARBOR VITAE    NOT AVBL
EAGLE RIVER    NOT AVBL
LAND O LAKES   NOT AVBL
RHINELANDER    CLOUDY    45  23  42 E7        29.96F
PHILLIPS       CLOUDY    44  26  49 E9        29.93F
ANTIGO         NOT AVBL
TOMAHAWK       NOT AVBL
MERRILL        NOT AVBL
$$

WIZ013-073-242200-
NORTHEAST WISCONSIN

CITY           SKY/WX    TMP DP  RH WIND       PRES   REMARKS
IRON MOUNTAIN  CLOUDY    51  16  24 CALM      29.96F
MARINETTE      CLOUDY    43  27  52 SE12      30.03F
$$

WIZ017-030-035>037-045-242200-
CENTRAL WISCONSIN

CITY           SKY/WX    TMP DP  RH WIND       PRES   REMARKS
MEDFORD        NOT AVBL
WAUSAU         CLOUDY    56  18  22 SE15      29.90F
MOSINEE        PTSUNNY   55  19  24 SE9       29.92F
MARSHFIELD     CLOUDY    56  22  26 S12       29.89F
WISC RAPIDS    CLOUDY    57  15  19 SE12      29.91F
STEVENS POINT  NOT AVBL
WAUPACA        PTSUNNY   59  19  21 SE8       29.95S
SHAWANO        CLOUDY    53  26  35 E10G16    29.98F
CLINTONVILLE   CLOUDY    55  18  22 SE3       29.96F
$$

WIZ038-039-048-051-242200-
FOX VALLEY

CITY           SKY/WX    TMP DP  RH WIND       PRES   REMARKS
NWS GREEN BAY  PTSUNNY   52  22  30 SE12      29.99F
APPLETON       PTSUNNY   54  21  28 E13       29.98F
OSHKOSH        PTSUNNY   53  25  33 E18       29.96F
FOND DU LAC    PTSUNNY   53  25  33 SE13      29.96F
$$

WIZ022-050-052-242200-
EAST CENTRAL WISCONSIN

CITY           SKY/WX    TMP DP  RH WIND       PRES   REMARKS
STURGEON BAY   CLOUDY    41  23  48 SE12      30.07F
MANITOWOC      NOT AVBL
SHEBOYGAN      MOSUNNY   48  18  30 E12       30.01F
$$

LMZ563-521-522-541>543-242200-
LAKESHORE

STATION/POSITION TIME  TEMP    WIND        PRES    VSBY  WAVE
                       AIR SEA DIR/SP/G                  HT/PER
                 (UTC) (F)     (DEG/KT/KT) (MB)    (MI)  (FT/S)
SHEBOYGAN LKSHOR 2000   38     110/  4/  5 1017.8F
KEWAUNEE LKSHORE 2000   38      80/  4/  7 1017.0F
NORTHPORT PIER   2000   36     140/  9/ 10 1018.3F
CHAMBERS ISLAND  2000   41      60/ 10/ 12 1017.9S
MENOMINEE LKSHOR 2000   41      80/  7/  8 1017.8F
$$



USA.gov is the U.S. government's official web portal to all federal, state and local government web resources and services.